Change the Weather History Date:

Monday, November 19, 2012

  Actual Average Record
Temperature  
Mean Temperature 37 °F -  
Max Temperature 57 °F 48 °F 70 °F (1949)
Min Temperature 17 °F 22 °F 2 °F (1964)
Degree Days  
Heating Degree Days 28    
Moisture  
Dew Point 18 °F    
Average Humidity 59    
Maximum Humidity 92    
Minimum Humidity 15    
Precipitation  
Precipitation 0.00 in - - ()
Sea Level Pressure  
Sea Level Pressure 30.30 in    
Wind  
Wind Speed 1 mph (SW)    
Max Wind Speed 9 mph    
Max Gust Speed -    
Visibility 10 miles    
Events      
Averages and records for this station are not official NWS values.
T = Trace of Precipitation, MM = Missing Value Source: NWS Daily Summary

Daily Weather History Graph

Daily Weather History Graph

Search for Another Location

Airport or City:

Trip Planner

Search our weather history database for the weather conditions in past years. The results will help you decide how hot, cold, wet, or windy it might be!

Date:

Astronomy

Nov. 19, 2012 Rise Set
Actual Time 6:56 AM MST 5:06 PM MST
Civil Twilight 6:29 AM MST 5:34 PM MST
Nautical Twilight 5:58 AM MST 6:05 PM MST
Astronomical Twilight 5:27 AM MST 6:35 PM MST
Moon 12:05 PM MST (11/19) 11:31 PM MST (11/19)
Length of Visible Light 11h 04m
Length of Day
10h 10m
Waxing Crescent, 41% of the Moon is Illuminated
Nov 19
Waxing Crescent
Nov 20
First Quarter
Nov 28
Full
Dec 6
Last Quarter
Dec 13
New

Hourly Weather History & Observations

Time (MST) Temp. Windchill Dew Point Humidity Pressure Visibility Wind Dir Wind Speed Gust Speed Precip Events Conditions
12:53 AM 24.1 °F - 19.9 °F 84% 30.20 in 10.0 mi Calm Calm - N/A   Clear
1:53 AM 25.0 °F - 21.0 °F 85% 30.22 in 10.0 mi Calm Calm - N/A   Clear
2:53 AM 23.0 °F - 19.9 °F 88% 30.22 in 10.0 mi Calm Calm - N/A   Clear
3:53 AM 21.9 °F - 19.9 °F 92% 30.24 in 10.0 mi Calm Calm - N/A   Clear
4:53 AM 19.9 °F - 17.1 °F 89% 30.26 in 10.0 mi Calm Calm - N/A   Clear
5:53 AM 21.0 °F - 18.0 °F 88% 30.30 in 10.0 mi Calm Calm - N/A   Clear
6:53 AM 17.1 °F 11.7 °F 15.1 °F 92% 30.35 in 10.0 mi South 3.5 mph - N/A   Clear
7:53 AM 21.9 °F - 19.0 °F 89% 30.38 in 10.0 mi Calm Calm - N/A   Clear
8:53 AM 32.0 °F - 26.1 °F 79% 30.36 in 10.0 mi Calm Calm - N/A   Clear
9:53 AM 43.0 °F - 28.9 °F 58% 30.34 in 10.0 mi Calm Calm - N/A   Clear
10:53 AM 46.9 °F - 30.0 °F 52% 30.30 in 10.0 mi Variable 3.5 mph - N/A   Clear
11:53 AM 51.1 °F - 25.0 °F 36% 30.27 in 10.0 mi Variable 3.5 mph - N/A   Clear
12:53 PM 54.0 °F - 18.0 °F 24% 30.24 in 10.0 mi Variable 5.8 mph - N/A   Clear
1:53 PM 57.0 °F - 10.0 °F 15% 30.21 in 10.0 mi Calm Calm - N/A   Clear
2:53 PM 55.9 °F - 9.0 °F 15% 30.22 in 10.0 mi WSW 9.2 mph - N/A   Clear
3:53 PM 55.9 °F - 10.9 °F 17% 30.23 in 10.0 mi Variable 6.9 mph - N/A   Clear
4:53 PM 51.1 °F - 12.9 °F 22% 30.27 in 10.0 mi SSW 4.6 mph - N/A   Clear
5:53 PM 43.0 °F 40.3 °F 14.0 °F 31% 30.32 in 10.0 mi SW 4.6 mph - N/A   Clear
6:53 PM 39.0 °F 36.8 °F 15.1 °F 38% 30.38 in 10.0 mi NNE 3.5 mph - N/A   Clear
7:53 PM 30.0 °F - 15.1 °F 54% 30.40 in 10.0 mi Calm Calm - N/A   Clear
8:53 PM 27.0 °F - 15.1 °F 61% 30.38 in 10.0 mi Calm Calm - N/A   Clear
9:53 PM 28.0 °F - 15.1 °F 58% 30.33 in 10.0 mi Calm Calm - N/A   Clear
10:53 PM 23.0 °F - 14.0 °F 68% 30.34 in 10.0 mi Calm Calm - N/A   Clear
11:53 PM 21.0 °F - 12.9 °F 71% 30.33 in 10.0 mi Calm Calm - N/A   Clear